Temp_Advection
nan nan nan nan nan nan nan nan nan nan nan nan nan nan nan nan nan nan nan nan nan nan nan nan nan nan nan nan nan nan nan nan nan nan nan nan nan nan nan nan nan nan nan nan
nan -0 -0 -0 0 0 0 -0 -1 -1 0 0 -0 -0 -0 -0 -0 -0 -0 -0 -0 -0 -0 -0 -0 -0 -0 -0 -0 -0 0 0 -0 -1 -0 0 0 -0 0 0 -0 -0 0 nan
nan -0 -0 -0 0 0 0 0 -0 -0 0 -0 -0 -0 -0 -1 -1 -0 -0 -0 -0 -0 -0 -0 -0 -0 -0 -0 -0 0 -0 0 -0 -0 -0 -0 -0 0 0 0 -0 -0 -0 nan
nan -0 -0 0 0 0 0 0 -0 -0 -0 -0 -0 -0 -0 -0 -1 -0 -0 -0 0 0 -0 -0 -0 0 -0 -0 -0 -0 -0 0 -0 -0 -0 -0 0 0 -0 0 -0 -0 -0 nan
nan -0 -0 -0 0 0 0 -0 -0 -0 -0 -1 0 0 -0 -0 -0 -0 0 -0 -1 -1 -0 -0 0 -0 -0 -0 -0 -0 -0 -0 -0 -0 -0 -0 -0 -0 0 -0 -1 -1 0 nan
nan -0 -0 -0 0 0 -0 0 -0 -0 -0 -0 -0 -0 0 -0 -0 -0 -0 1 -0 -0 -0 -0 -0 -0 -0 0 -0 -0 -0 0 -0 -0 -1 -0 -0 -0 -0 -0 0 0 -0 nan
nan 0 0 -0 0 0 0 -0 -0 0 -0 -0 -0 -0 -0 -0 -0 0 -0 -0 -0 -0 -0 -0 -0 0 0 0 0 0 0 -0 -0 -0 -0 -0 -0 -0 0 0 0 0 0 nan
nan -0 -0 -0 0 0 0 0 -0 0 -0 -0 -0 -0 -0 -0 -1 -0 -0 -1 -0 -0 0 -0 -0 -0 -0 -0 -0 -0 0 0 0 0 -0 -1 -1 -0 -0 -0 -0 -0 -0 nan
nan -0 -0 0 0 0 0 -0 -0 0 -0 -0 -0 -0 -0 -0 -0 -0 -0 -1 -0 -0 -0 0 0 0 -0 -0 -0 -0 0 0 -0 0 -0 -0 -0 -0 0 -0 -0 -1 -0 nan
nan -0 -0 -0 0 0 0 -0 0 -0 -0 -1 -0 0 -0 -0 -0 -0 -0 -1 -1 -0 -0 0 0 -0 -0 0 -0 0 -0 0 -0 0 -0 -1 -1 -0 -1 -0 -0 -0 0 nan
nan -0 -0 0 0 0 0 0 0 -0 -0 -1 -0 -0 0 0 -0 -0 -0 0 -0 -0 0 0 -0 0 -0 -0 0 0 -0 -0 0 -0 -0 -1 -2 -1 0 0 -0 -0 -0 nan
nan -0 0 0 0 0 0 0 -0 0 -0 -0 -0 -0 -1 -1 -1 -0 -0 0 0 -0 -0 -0 0 0 -0 0 -0 0 -0 -0 -0 -0 -0 -0 -1 -1 -0 1 -0 -0 0 nan
nan -0 -0 0 0 -0 0 0 0 -0 -0 -0 -1 -2 -1 0 -0 -0 0 0 -0 0 -0 -0 -0 -0 -0 -0 -0 0 0 0 0 -0 -0 -0 -1 -0 -1 -1 -0 0 0 nan
nan -0 0 0 -0 0 0 0 -0 -0 -0 -0 -1 -0 -0 -0 -0 0 -0 -0 -0 0 0 -0 -0 -0 0 -0 -0 0 -0 -0 -0 0 -0 -1 -1 -1 -0 0 0 -0 -1 nan
nan 0 0 0 0 1 0 0 -0 -0 0 -0 -0 -1 -1 0 0 -0 -0 -0 -0 0 0 -0 -0 -0 -0 -0 0 -0 -0 -0 -0 -0 -1 -0 -0 -0 0 -0 -1 -0 -0 nan
nan 0 0 0 0 0 -0 -0 -1 -0 0 0 -0 -1 -0 -0 -0 -0 -0 0 0 0 0 -0 -0 -0 -0 -0 -0 -0 -0 -0 -0 -0 0 0 -0 -0 0 -0 0 0 -0 nan
nan 0 0 0 0 0 0 -0 -0 -0 -0 -0 0 -0 -0 -0 0 0 0 0 0 0 0 -0 -0 -0 0 0 -0 -0 -0 -0 0 0 -0 -1 -0 0 0 0 -0 -0 -0 nan
nan 0 0 0 1 0 0 0 0 0 -0 0 0 -0 -0 0 0 0 0 0 0 0 -0 -0 -0 -0 0 -0 -1 -0 0 -0 -0 -0 0 -0 -0 -0 -0 0 -0 -0 -1 nan
nan 0 -0 0 0 -0 0 0 0 0 -0 -0 -0 -0 0 -0 0 0 0 0 -0 -0 -0 -0 0 -0 -0 -0 -1 -0 -0 -0 0 0 0 0 -0 -0 0 0 -0 -0 -0 nan
nan -0 -0 -0 -0 -0 -0 0 0 -0 -0 -0 -0 -0 -0 -0 -0 -0 -0 0 0 -0 0 -0 -0 -0 -1 -0 0 -0 -0 -0 0 -0 -0 -0 -0 -0 -0 0 0 0 -0 nan
nan -0 -0 -0 -0 0 -0 -0 -0 -0 -0 -0 -0 -0 -0 -0 -0 -0 0 -0 0 -0 -0 0 -0 -0 -1 -1 -0 0 0 0 0 0 0 0 0 -0 0 0 0 0 0 nan
nan -0 -1 0 -0 -0 0 -0 -0 -0 -0 -0 -0 -0 -0 -0 -0 -0 -0 -0 0 0 -0 -0 -0 -0 -0 -0 -0 -0 0 0 0 0 0 0 0 0 0 0 0 0 0 nan
nan 0 0 0 0 0 0 0 0 0 -0 -0 -0 -0 0 0 0 -0 0 0 0 -0 -0 -0 -0 -0 -0 -0 -0 -0 0 -0 0 0 0 0 0 0 0 -0 -0 0 0 nan
nan -0 -0 0 0 -0 0 0 0 0 0 0 -0 -0 0 0 -0 0 -0 -0 0 -0 -0 0 -0 -0 -0 -0 -0 -0 -0 -0 -0 0 0 0 -0 -0 0 -0 0 0 -0 nan
nan -0 -0 0 0 0 0 0 0 0 0 0 -0 -0 -0 -0 0 -0 -0 -0 -0 -0 1 0 0 0 -0 -0 -0 -0 -0 -0 -0 0 0 -0 -0 -0 -0 0 0 0 -0 nan
nan -0 0 -0 -0 -0 0 0 0 0 0 0 -0 -0 0 -0 -0 -0 -0 -0 0 0 0 0 -0 -0 -0 -0 -0 -0 -0 -0 -0 -0 -0 -0 0 -0 -0 -0 0 0 -0 nan
nan nan nan nan nan nan nan nan nan nan nan nan nan nan nan nan nan nan nan nan nan nan nan nan nan nan nan nan nan nan nan nan nan nan nan nan nan nan nan nan nan nan nan nan
Wind_Speed
12 13 13 11 12 11 11 5 2 4 2 8 4 9 4 9 15 14 7 7 8 8 5 3 5 3 3 5 5 3 1 1 4 6 9 4 8 8 7 2 5 4 2 3
14 15 14 13 12 10 9 4 9 20 16 2 6 6 11 15 14 14 5 5 2 9 6 4 3 4 1 2 3 4 2 2 3 6 3 3 4 9 13 5 2 5 2 2
15 14 14 14 13 10 13 4 2 5 6 15 5 4 8 11 12 13 14 12 14 11 5 4 5 6 1 2 3 7 4 1 2 3 3 3 6 6 8 9 3 2 5 3
13 13 15 14 12 10 12 7 5 3 2 3 4 8 5 12 12 4 13 5 12 11 5 6 6 2 5 6 4 4 3 1 2 7 12 12 12 8 12 16 12 6 4 11
15 14 12 12 11 13 17 6 3 2 6 11 7 7 3 8 9 9 13 6 15 7 4 4 8 4 1 2 5 3 4 1 3 3 5 8 7 13 12 13 16 14 13 10
17 16 15 14 13 14 12 9 10 4 5 3 5 5 5 12 12 10 10 14 12 8 6 3 7 4 6 4 3 2 2 1 2 3 7 9 5 3 10 8 7 11 5 4
19 19 18 16 15 17 20 13 5 4 4 4 4 9 15 17 14 7 16 17 3 6 11 10 7 7 8 6 4 5 3 2 2 3 5 3 4 13 11 13 9 8 7 6
18 18 17 18 17 16 20 21 17 7 4 1 4 6 8 15 13 10 12 12 10 4 6 2 2 3 3 5 9 9 9 4 2 3 3 6 10 4 5 4 3 7 8 10
20 19 19 18 18 17 19 22 20 13 5 6 17 4 7 4 4 5 5 10 3 5 1 2 3 3 3 2 4 10 6 3 3 2 2 4 3 6 19 6 2 10 7 18
20 21 20 20 21 20 21 23 21 19 6 11 14 4 3 6 3 3 4 14 5 3 2 2 2 3 3 3 2 1 3 2 10 4 3 6 6 2 9 2 2 6 21 17
25 25 25 24 24 23 23 26 24 21 5 16 12 7 6 4 11 1 7 9 5 2 1 2 2 3 4 2 4 3 5 4 3 3 3 8 14 9 5 5 6 17 20 25
24 26 27 27 28 27 25 27 25 22 21 9 6 15 18 24 26 10 3 3 3 4 1 1 2 2 2 2 2 4 3 4 2 6 4 7 22 17 20 21 19 15 18 21
27 27 32 33 32 31 33 31 23 21 17 19 27 27 25 23 24 17 8 4 3 4 7 2 2 3 1 1 2 3 4 2 3 3 6 9 19 27 28 23 25 22 20 19
25 26 28 33 35 32 34 33 28 22 4 4 7 6 11 11 18 24 25 21 12 8 3 2 2 3 2 2 2 1 2 1 3 2 11 14 15 19 19 16 19 19 17 16
17 17 17 23 25 25 33 27 26 23 14 3 6 18 12 16 13 14 18 21 10 5 1 2 2 3 3 2 1 4 5 3 2 2 7 13 11 11 10 9 13 13 10 10
16 18 13 16 24 37 30 10 24 24 20 6 3 6 9 7 9 16 18 20 21 9 2 3 5 5 4 2 2 6 6 11 9 5 17 22 13 13 7 12 8 5 7 6
11 12 17 24 37 36 14 9 7 30 20 4 3 5 3 9 6 14 13 13 12 9 4 5 4 4 5 2 2 5 9 12 9 13 7 11 6 10 9 7 6 5 8 7
17 19 24 36 32 30 10 10 11 30 20 3 2 3 5 3 5 5 14 10 9 8 5 3 3 3 3 3 7 9 8 10 16 17 11 15 15 12 9 6 3 4 7 6
28 31 34 30 21 19 8 7 14 25 7 6 3 2 3 5 6 7 7 9 2 6 4 3 4 2 3 4 10 11 10 6 4 8 9 8 9 9 6 3 4 6 9 9
40 38 17 6 16 13 12 4 9 10 7 5 3 6 3 4 2 3 5 6 3 3 5 5 2 3 14 13 12 8 7 5 4 6 8 6 7 6 7 7 7 9 12 14
35 12 6 14 21 10 8 4 5 5 4 7 7 15 4 5 1 2 5 3 2 2 3 2 2 3 4 10 11 10 10 7 6 6 8 8 5 6 8 9 11 13 14 13
19 12 26 23 7 4 4 3 3 4 4 6 4 5 9 3 2 1 2 2 1 2 2 2 1 3 9 8 9 8 7 6 9 10 12 11 11 10 12 12 13 14 15 14
32 9 7 6 6 5 5 7 3 2 3 3 4 3 4 2 2 2 1 1 1 6 3 2 2 11 7 7 6 8 6 5 7 10 11 11 13 13 15 18 17 17 17 15
4 3 4 2 2 1 1 1 1 1 2 11 13 4 3 3 2 1 2 1 2 1 2 3 1 9 7 5 4 4 8 9 12 14 14 16 17 18 17 15 13 13 14 13
4 4 2 1 2 1 1 3 4 5 5 4 6 5 3 2 3 1 3 2 2 2 3 2 9 9 7 7 8 10 11 13 15 15 16 16 16 17 18 14 12 11 10 9
4 6 3 3 5 4 7 7 6 5 4 5 4 2 3 2 2 3 2 1 2 2 2 13 12 11 10 10 10 10 12 13 14 15 15 14 13 13 13 10 8 7 5 4
4 4 10 9 9 7 7 6 5 2 3 2 3 4 1 1 3 2 2 2 3 13 16 13 9 10 10 10 12 12 13 14 14 14 13 12 11 10 8 8 8 7 7 7
Wind_Direction
283 282 282 291 296 286 292 294 281 227 34 180 219 225 221 260 282 290 279 281 267 278 331 310 310 27 116 149 133 162 227 250 263 241 252 180 161 185 174 182 179 207 275 272
278 282 275 277 278 268 259 249 264 290 269 250 229 257 253 249 271 273 261 277 342 314 312 305 298 3 335 137 93 145 286 323 320 319 302 124 160 204 204 181 59 221 177 180
275 273 273 275 276 254 238 248 290 294 214 227 276 302 265 254 278 262 249 262 285 290 315 324 288 294 219 291 142 163 109 196 270 273 339 285 293 156 220 192 188 199 226 196
277 275 270 265 261 241 231 208 234 243 304 342 322 271 255 292 297 300 327 293 239 260 263 311 301 224 356 28 78 66 85 190 23 291 280 279 293 223 259 232 223 208 239 231
270 271 270 262 252 239 218 202 221 328 309 292 274 250 268 298 326 283 292 298 316 327 287 249 288 324 88 83 1 68 359 277 17 285 351 326 287 239 218 246 237 229 244 248
270 266 266 255 244 230 225 226 239 293 260 327 330 302 339 329 325 288 301 273 272 291 292 350 273 245 271 164 129 105 124 280 37 279 330 303 285 208 244 200 229 229 254 224
264 263 258 253 242 233 236 238 227 211 266 208 239 273 295 296 303 309 300 299 222 237 312 302 273 261 247 256 238 176 182 143 101 268 320 276 278 318 261 191 180 204 195 231
261 258 255 247 243 233 237 238 227 232 266 206 292 297 295 309 320 303 269 292 281 227 278 74 293 340 328 253 225 212 199 157 181 214 214 294 300 356 343 183 36 296 221 193
262 258 254 248 243 238 237 242 238 228 252 246 255 270 292 294 309 318 296 313 330 142 285 89 200 198 236 255 275 217 181 160 152 169 231 256 271 326 4 360 89 327 144 173
259 256 252 248 243 238 233 239 234 235 250 262 259 227 255 329 314 279 352 333 307 2 56 115 155 228 245 245 264 233 143 175 211 211 250 285 277 300 20 26 133 6 92 108
259 255 253 250 241 235 228 232 233 225 251 257 254 250 235 284 277 317 327 321 16 325 55 125 249 186 236 214 225 219 173 163 179 175 221 266 332 312 141 136 103 99 90 103
257 255 249 244 241 235 222 225 227 232 236 251 251 248 251 248 256 274 256 216 274 304 281 43 304 312 353 192 280 28 220 182 233 173 206 75 45 53 61 121 116 94 101 110
261 258 246 241 240 233 217 218 217 217 228 260 262 263 266 253 247 245 253 230 243 350 20 304 312 283 292 269 284 170 222 185 232 329 67 79 75 65 60 70 84 92 94 110
261 254 252 240 232 240 205 206 206 209 188 232 278 313 263 243 236 246 243 248 256 284 276 244 266 257 78 234 216 230 2 30 332 136 110 89 70 72 69 60 74 74 76 74
254 258 266 232 222 211 184 199 205 211 202 286 283 302 274 234 233 232 227 230 236 204 242 245 241 267 264 250 123 26 17 324 333 27 53 97 72 78 94 74 51 68 68 62
254 260 221 179 174 164 165 182 211 211 219 264 304 301 292 257 271 235 225 223 228 222 213 256 268 250 238 301 72 12 49 44 37 60 90 103 96 75 92 100 97 98 98 76
220 165 163 164 161 162 140 175 188 199 199 234 269 291 293 318 217 200 197 207 208 217 208 225 253 280 322 293 78 51 48 39 55 108 81 82 74 92 109 125 100 80 89 99
158 148 150 151 154 158 145 133 157 176 176 224 275 273 316 220 162 157 195 169 179 189 221 239 237 258 154 81 74 59 67 57 54 65 101 114 117 119 115 105 79 82 76 85
144 143 141 146 156 174 170 141 138 164 180 184 216 223 253 298 171 155 150 165 163 208 210 213 187 19 50 71 84 63 53 55 68 86 94 115 110 112 122 126 102 100 95 92
141 139 131 124 169 170 180 118 170 194 204 231 229 220 236 232 195 154 136 183 168 189 203 183 76 85 96 92 87 63 36 30 126 109 92 109 102 109 115 117 135 135 130 129
138 139 120 143 147 133 175 175 194 178 195 217 235 223 165 191 210 125 200 169 163 183 231 161 101 110 89 93 84 90 112 113 109 128 134 159 149 134 140 135 137 142 148 149
144 122 125 131 169 188 204 171 178 204 228 193 190 210 197 138 178 68 12 136 93 215 108 110 89 100 107 95 85 81 88 105 117 117 120 127 132 143 141 136 137 137 141 141
123 116 149 159 181 179 173 184 186 202 207 208 145 70 110 114 162 85 186 166 171 126 55 82 48 116 106 100 87 83 85 100 116 118 123 124 125 125 123 121 123 125 125 125
93 124 100 149 161 99 176 160 95 68 116 127 126 95 102 87 57 354 69 309 53 111 111 196 111 127 122 113 96 105 98 96 108 114 117 119 120 118 117 116 124 127 124 121
83 66 90 84 172 95 101 96 87 66 125 100 97 72 85 42 75 69 66 57 68 39 193 198 141 138 134 122 116 111 111 111 110 112 112 112 115 117 113 113 118 120 122 124
54 47 64 74 73 27 63 70 73 71 104 88 65 110 64 62 79 58 36 356 215 233 169 138 143 135 132 129 125 120 120 118 115 112 110 110 110 107 106 108 104 98 86 85
45 26 60 74 72 60 52 46 24 70 72 72 69 65 106 22 58 56 29 163 197 127 136 145 147 145 139 134 129 126 123 119 115 111 105 97 89 87 95 96 91 83 74 56
Height
1473 1474 1474 1475 1476 1476 1475 1476 1477 1469 1467 1470 1466 1463 1458 1457 1452 1454 1452 1446 1442 1437 1431 1428 1427 1419 1416 1416 1417 1423 1423 1425 1426 1414 1403 1403 1413 1421 1425 1430 1427 1428 1427 1426
1470 1470 1471 1472 1473 1474 1475 1474 1470 1464 1467 1463 1464 1460 1457 1456 1453 1451 1450 1442 1440 1437 1437 1433 1425 1419 1418 1417 1417 1422 1423 1428 1427 1414 1404 1402 1409 1410 1415 1421 1428 1427 1428 1419
1466 1467 1468 1469 1470 1472 1472 1473 1471 1462 1461 1461 1461 1461 1456 1452 1448 1445 1446 1442 1440 1436 1431 1429 1428 1421 1419 1417 1418 1420 1422 1427 1427 1427 1424 1425 1419 1414 1415 1423 1425 1424 1421 1410
1462 1463 1464 1465 1466 1468 1470 1468 1466 1464 1463 1460 1461 1460 1457 1453 1451 1446 1444 1436 1436 1435 1434 1430 1430 1422 1421 1419 1419 1422 1425 1429 1427 1425 1420 1417 1412 1417 1418 1413 1417 1417 1410 1408
1458 1459 1460 1461 1463 1464 1465 1465 1465 1464 1462 1459 1459 1456 1455 1453 1449 1443 1438 1442 1438 1437 1433 1427 1430 1428 1423 1426 1424 1426 1428 1432 1429 1427 1416 1413 1411 1407 1410 1416 1411 1408 1406 1406
1453 1454 1455 1457 1459 1461 1460 1461 1462 1465 1460 1460 1461 1456 1450 1451 1449 1441 1440 1440 1441 1435 1431 1428 1429 1428 1425 1424 1425 1428 1429 1432 1435 1430 1419 1413 1411 1401 1398 1397 1403 1406 1408 1403
1447 1448 1450 1452 1454 1456 1457 1459 1462 1463 1457 1458 1457 1454 1453 1450 1446 1446 1441 1437 1436 1430 1428 1428 1427 1426 1425 1424 1423 1425 1429 1431 1435 1436 1424 1423 1398 1394 1391 1392 1399 1402 1403 1404
1441 1442 1444 1446 1449 1451 1453 1455 1459 1459 1456 1454 1452 1452 1450 1447 1442 1438 1436 1430 1427 1426 1428 1428 1428 1430 1427 1422 1418 1421 1423 1428 1435 1436 1429 1414 1400 1395 1395 1396 1404 1398 1400 1403
1435 1436 1438 1441 1443 1447 1449 1450 1453 1454 1454 1449 1449 1450 1448 1446 1443 1439 1435 1430 1427 1429 1430 1430 1431 1432 1424 1420 1415 1412 1420 1424 1433 1437 1428 1424 1400 1394 1391 1390 1404 1396 1386 1401
1427 1429 1432 1434 1437 1441 1444 1444 1447 1450 1448 1445 1447 1447 1448 1447 1445 1442 1438 1437 1430 1429 1433 1434 1436 1432 1421 1424 1417 1414 1426 1429 1427 1432 1432 1417 1399 1395 1393 1401 1411 1402 1394 1402
1419 1421 1424 1426 1430 1434 1437 1439 1442 1446 1445 1443 1444 1444 1445 1445 1447 1444 1441 1436 1432 1431 1436 1435 1431 1434 1422 1418 1414 1415 1418 1422 1427 1428 1430 1424 1403 1398 1402 1408 1409 1407 1405 1407
1410 1412 1414 1417 1421 1425 1431 1433 1437 1441 1443 1441 1439 1438 1439 1440 1441 1444 1441 1440 1441 1434 1433 1432 1432 1431 1428 1418 1418 1416 1414 1413 1419 1417 1417 1415 1410 1407 1403 1403 1412 1412 1411 1412
1400 1401 1404 1407 1411 1415 1420 1425 1432 1437 1438 1438 1435 1430 1433 1435 1434 1438 1439 1439 1439 1436 1438 1437 1433 1428 1426 1421 1417 1413 1414 1414 1414 1411 1414 1414 1411 1411 1410 1413 1412 1414 1416 1417
1388 1389 1391 1394 1399 1405 1410 1418 1426 1432 1435 1434 1427 1425 1425 1426 1429 1431 1432 1435 1436 1437 1436 1435 1433 1432 1426 1420 1418 1417 1416 1416 1415 1410 1414 1416 1417 1414 1416 1420 1415 1415 1415 1418
1381 1381 1382 1383 1390 1396 1407 1417 1424 1428 1433 1429 1426 1424 1421 1422 1423 1425 1428 1431 1433 1434 1436 1434 1430 1426 1424 1415 1415 1421 1422 1423 1418 1413 1414 1416 1418 1420 1419 1415 1417 1418 1419 1421
1375 1376 1376 1380 1387 1396 1408 1420 1423 1425 1430 1433 1427 1418 1415 1417 1419 1420 1423 1426 1430 1433 1432 1431 1427 1423 1422 1416 1414 1430 1427 1424 1419 1419 1418 1417 1421 1421 1423 1422 1423 1424 1419 1424
1371 1374 1377 1382 1389 1398 1408 1411 1412 1419 1427 1430 1425 1417 1413 1412 1413 1417 1421 1424 1427 1430 1431 1428 1425 1422 1422 1418 1421 1433 1430 1426 1425 1423 1422 1427 1427 1426 1424 1427 1428 1428 1422 1424
1371 1376 1381 1388 1396 1406 1409 1410 1411 1416 1425 1428 1425 1419 1414 1412 1412 1415 1418 1421 1425 1426 1426 1425 1423 1420 1419 1427 1433 1433 1431 1429 1428 1427 1425 1426 1427 1428 1429 1429 1430 1428 1427 1426
1374 1380 1387 1395 1402 1406 1409 1411 1413 1419 1425 1422 1421 1418 1415 1408 1405 1411 1415 1418 1422 1422 1420 1420 1420 1423 1431 1433 1434 1434 1434 1434 1433 1431 1431 1430 1430 1431 1431 1431 1432 1430 1429 1427
1377 1384 1393 1399 1403 1407 1411 1415 1417 1419 1419 1418 1413 1410 1408 1409 1404 1406 1410 1412 1411 1413 1415 1414 1418 1430 1436 1437 1437 1435 1434 1435 1434 1433 1433 1432 1432 1433 1434 1433 1433 1432 1432 1435
1380 1386 1391 1396 1404 1408 1411 1412 1414 1411 1413 1410 1404 1403 1403 1406 1402 1403 1406 1408 1409 1410 1411 1411 1418 1426 1437 1439 1439 1439 1439 1437 1437 1435 1434 1434 1435 1435 1435 1435 1436 1436 1437 1439
1379 1382 1391 1400 1405 1406 1405 1406 1408 1407 1403 1400 1400 1399 1401 1403 1403 1404 1405 1406 1408 1406 1407 1411 1427 1435 1437 1438 1439 1439 1439 1438 1438 1437 1437 1437 1438 1438 1438 1438 1438 1438 1440 1442
1381 1386 1391 1394 1398 1399 1401 1400 1399 1401 1396 1395 1396 1399 1401 1403 1404 1405 1405 1402 1409 1407 1413 1427 1433 1436 1437 1438 1439 1439 1439 1439 1439 1438 1439 1439 1439 1440 1440 1440 1442 1443 1443 1445
1381 1384 1392 1393 1394 1397 1396 1396 1395 1396 1395 1395 1396 1399 1401 1403 1405 1406 1406 1411 1408 1408 1424 1433 1437 1438 1439 1439 1440 1440 1440 1439 1439 1440 1440 1441 1442 1442 1443 1444 1446 1447 1447 1449
1382 1385 1396 1397 1395 1395 1395 1395 1396 1396 1396 1396 1397 1400 1402 1405 1407 1407 1410 1413 1422 1426 1436 1437 1437 1439 1440 1440 1441 1441 1442 1442 1443 1444 1444 1445 1446 1447 1447 1449 1451 1452 1452 1451
1386 1390 1393 1395 1395 1397 1396 1397 1398 1398 1398 1398 1400 1403 1406 1408 1410 1414 1421 1420 1432 1439 1436 1436 1438 1440 1441 1442 1443 1444 1445 1445 1446 1447 1448 1449 1451 1451 1451 1453 1454 1453 1453 1453
1393 1398 1397 1397 1398 1400 1400 1400 1400 1401 1401 1403 1405 1413 1412 1413 1420 1427 1429 1437 1435 1434 1436 1438 1439 1441 1443 1444 1445 1446 1448 1449 1450 1451 1452 1453 1454 1454 1455 1455 1454 1455 1454 1454